Simultaneous Nadir Overpasses (SNOs) Predictions

Prediction of SNOs between NOAA-19 and METOP-C Satellite Orbit:

Table of predicted SNOs for the next 14.0 days since TLE Epoch: 2/22/2020
Index Date (NOAA-19) Time (NOAA-19) Lat,Lon (NOAA-19) SZA (NOAA-19 ) Date (METOP-C) Time (METOP-C) Lat,Lon (METOP-C) SZA (METOP-C ) Distance(km) Time Diff (sec)
1 02/27/2020 04:14:45 79.80, 136.97 88.76 02/27/2020 04:15:55 79.83, 137.00 88.81 3.09 70
2 02/27/2020 05:05:50 -79.81, -55.89 91.25 02/27/2020 05:06:38 -79.80, -55.95 91.26 1.71 48
3 02/27/2020 05:56:46 79.81, 111.37 88.74 02/27/2020 05:57:17 79.81, 111.53 88.76 3.19 31
4 02/27/2020 06:47:50 -79.79, -81.19 91.29 02/27/2020 06:47:59 -79.81, -81.14 91.26 2.71 9
5 02/27/2020 07:38:46 79.79, 86.07 88.71 02/27/2020 07:38:39 79.80, 86.05 88.71 0.79 7
6 02/27/2020 08:29:51 -79.80,-106.79 91.31 02/27/2020 08:29:21 -79.80,-106.62 91.31 3.43 30
7 02/27/2020 09:20:47 79.80, 60.47 88.68 02/27/2020 09:20:01 79.78, 60.58 88.66 2.91 46
8 02/27/2020 10:11:51 -79.78,-132.09 91.34 02/27/2020 10:10:43 -79.78,-132.09 91.35 0.29 68




NCC Satellite Simultaneous Nadir Overpasses (SNOs) Prediction Service
